Time,TemperatureF,DewpointF,PressureIn,WindDirection,WindDirectionDegrees,WindSpeedMPH,WindSpeedGustMPH,Humidity,HourlyPrecipIn,Conditions,Clouds,dailyrainin,SoftwareType,DateUTC
2013-02-28 00:00:00,51.5,39.7,30.27,NNW,337,0.0,6.0,64,0.00,,,0.00,WeatherCatV1.10B1784,2013-02-28 08:00:00,
2013-02-28 00:05:00,51.6,39.8,30.27,NNW,327,0.0,1.0,64,0.00,,,0.00,WeatherCatV1.10B1784,2013-02-28 08:05:00,
2013-02-28 00:10:00,51.5,39.7,30.27,NNW,342,0.0,0.0,64,0.00,,,0.00,WeatherCatV1.10B1784,2013-02-28 08:10:00,
2013-02-28 00:15:00,51.5,39.3,30.28,NNW,343,0.0,0.0,63,0.00,,,0.00,WeatherCatV1.10B1784,2013-02-28 08:15:00,
2013-02-28 00:20:00,51.4,39.2,30.28,NNW,343,0.0,1.0,63,0.00,,,0.00,WeatherCatV1.10B1784,2013-02-28 08:20:00,
2013-02-28 00:25:00,51.4,39.2,30.28,NNW,337,0.0,2.0,63,0.00,,,0.00,WeatherCatV1.10B1784,2013-02-28 08:25:00,
2013-02-28 00:30:00,51.4,38.8,30.28,NE,37,0.0,1.0,62,0.00,,,0.00,WeatherCatV1.10B1784,2013-02-28 08:30:00,
2013-02-28 00:35:00,51.5,38.5,30.28,North,10,0.0,2.0,61,0.00,,,0.00,WeatherCatV1.10B1784,2013-02-28 08:35:00,
2013-02-28 00:40:00,51.8,37.9,30.28,NNW,339,0.0,4.0,59,0.00,,,0.00,WeatherCatV1.10B1784,2013-02-28 08:40:00,
2013-02-28 00:45:00,52.0,38.1,30.28,NNW,337,0.0,5.0,59,0.00,,,0.00,WeatherCatV1.10B1784,2013-02-28 08:45:00,
2013-02-28 00:50:00,52.0,38.1,30.28,NNW,337,0.0,0.0,59,0.00,,,0.00,WeatherCatV1.10B1784,2013-02-28 08:50:00,
2013-02-28 00:55:00,51.9,38.0,30.28,NNW,337,2.0,5.0,59,0.00,,,0.00,WeatherCatV1.10B1784,2013-02-28 08:55:00,
2013-02-28 01:00:00,52.0,38.1,30.29,North,350,0.0,0.0,59,0.00,,,0.00,WeatherCatV1.10B1784,2013-02-28 09:00:00,
2013-02-28 01:05:00,51.9,38.5,30.29,North,350,0.0,0.0,60,0.00,,,0.00,WeatherCatV1.10B1784,2013-02-28 09:05:00,
2013-02-28 01:10:00,51.8,38.4,30.29,North,350,0.0,0.0,60,0.00,,,0.00,WeatherCatV1.10B1784,2013-02-28 09:10:00,
2013-02-28 01:15:00,51.6,38.2,30.29,SE,145,0.0,0.0,60,0.00,,,0.00,WeatherCatV1.10B1784,2013-02-28 09:15:00,
2013-02-28 01:20:00,51.4,38.4,30.29,SE,145,0.0,0.0,61,0.00,,,0.00,WeatherCatV1.10B1784,2013-02-28 09:20:00,
2013-02-28 01:25:00,51.2,38.6,30.29,NNW,348,0.0,1.0,62,0.00,,,0.00,WeatherCatV1.10B1784,2013-02-28 09:25:00,
2013-02-28 01:30:00,51.0,38.4,30.29,NNW,335,0.0,3.0,62,0.00,,,0.00,WeatherCatV1.10B1784,2013-02-28 09:30:00,
2013-02-28 01:35:00,50.9,38.3,30.29,North,353,0.0,0.0,62,0.00,,,0.00,WeatherCatV1.10B1784,2013-02-28 09:35:00,
2013-02-28 01:40:00,50.9,37.9,30.29,North,357,1.0,5.0,61,0.00,,,0.00,WeatherCatV1.10B1784,2013-02-28 09:40:00,
2013-02-28 01:45:00,51.0,38.4,30.28,North,355,0.0,1.0,62,0.00,,,0.00,WeatherCatV1.10B1784,2013-02-28 09:45:00,
2013-02-28 01:50:00,51.0,38.4,30.28,ESE,104,0.0,0.0,62,0.00,,,0.00,WeatherCatV1.10B1784,2013-02-28 09:50:00,
2013-02-28 01:55:00,50.8,38.3,30.28,ESE,104,0.0,0.0,62,0.00,,,0.00,WeatherCatV1.10B1784,2013-02-28 09:55:00,
2013-02-28 02:00:00,50.8,37.8,30.28,NW,326,1.0,2.0,61,0.00,,,0.00,WeatherCatV1.10B1784,2013-02-28 10:00:00,
2013-02-28 02:05:00,51.0,38.0,30.28,NNW,334,1.0,5.0,61,0.00,,,0.00,WeatherCatV1.10B1784,2013-02-28 10:05:00,
2013-02-28 02:10:00,51.3,38.3,30.28,North,352,2.0,2.0,61,0.00,,,0.00,WeatherCatV1.10B1784,2013-02-28 10:10:00,
2013-02-28 02:15:00,51.6,38.6,30.28,NNW,345,2.0,3.0,61,0.00,,,0.00,WeatherCatV1.10B1784,2013-02-28 10:15:00,
2013-02-28 02:20:00,51.7,38.7,30.28,North,2,1.0,3.0,61,0.00,,,0.00,WeatherCatV1.10B1784,2013-02-28 10:20:00,
2013-02-28 02:25:00,51.9,38.5,30.28,North,349,4.0,4.0,60,0.00,,,0.00,WeatherCatV1.10B1784,2013-02-28 10:25:00,
2013-02-28 02:30:00,51.9,38.5,30.28,NNW,331,1.0,4.0,60,0.00,,,0.00,WeatherCatV1.10B1784,2013-02-28 10:30:00,
2013-02-28 02:35:00,52.1,38.2,30.28,North,6,1.0,8.0,59,0.00,,,0.00,WeatherCatV1.10B1784,2013-02-28 10:35:00,
2013-02-28 02:40:00,52.2,38.3,30.28,NW,325,2.0,2.0,59,0.00,,,0.00,WeatherCatV1.10B1784,2013-02-28 10:40:00,
2013-02-28 02:45:00,52.3,38.0,30.28,NNW,339,0.0,6.0,58,0.00,,,0.00,WeatherCatV1.10B1784,2013-02-28 10:45:00,
2013-02-28 02:50:00,52.3,38.0,30.28,NNW,343,1.0,5.0,58,0.00,,,0.00,WeatherCatV1.10B1784,2013-02-28 10:50:00,
2013-02-28 02:55:00,52.5,37.7,30.28,ENE,59,4.0,4.0,57,0.00,,,0.00,WeatherCatV1.10B1784,2013-02-28 10:55:00,
2013-02-28 03:00:00,52.7,37.4,30.28,North,352,1.0,5.0,56,0.00,,,0.00,WeatherCatV1.10B1784,2013-02-28 11:00:00,
2013-02-28 03:05:00,53.0,36.8,30.28,NNW,343,4.0,9.0,54,0.00,,,0.00,WeatherCatV1.10B1784,2013-02-28 11:05:00,
2013-02-28 03:10:00,53.3,37.1,30.28,NNW,347,3.0,7.0,54,0.00,,,0.00,WeatherCatV1.10B1784,2013-02-28 11:10:00,
2013-02-28 03:15:00,53.4,36.7,30.28,NNW,337,4.0,7.0,53,0.00,,,0.00,WeatherCatV1.10B1784,2013-02-28 11:15:00,
2013-02-28 03:20:00,53.6,36.4,30.28,North,352,4.0,7.0,52,0.00,,,0.00,WeatherCatV1.10B1784,2013-02-28 11:20:00,
2013-02-28 03:25:00,54.0,36.3,30.28,NNW,341,7.0,7.0,51,0.00,,,0.00,WeatherCatV1.10B1784,2013-02-28 11:25:00,
2013-02-28 03:30:00,54.2,36.5,30.28,North,352,2.0,5.0,51,0.00,,,0.00,WeatherCatV1.10B1784,2013-02-28 11:30:00,
2013-02-28 03:35:00,54.2,37.4,30.28,NNW,345,4.0,5.0,53,0.00,,,0.00,WeatherCatV1.10B1784,2013-02-28 11:35:00,
2013-02-28 03:40:00,54.3,37.5,30.28,NNW,348,5.0,5.0,53,0.00,,,0.00,WeatherCatV1.10B1784,2013-02-28 11:40:00,
2013-02-28 03:45:00,54.2,37.9,30.28,NNW,333,3.0,6.0,54,0.00,,,0.00,WeatherCatV1.10B1784,2013-02-28 11:45:00,
2013-02-28 03:50:00,54.3,38.0,30.28,NNW,329,4.0,8.0,54,0.00,,,0.00,WeatherCatV1.10B1784,2013-02-28 11:50:00,
2013-02-28 03:55:00,54.4,38.1,30.28,NNW,336,4.0,6.0,54,0.00,,,0.00,WeatherCatV1.10B1784,2013-02-28 11:55:00,
2013-02-28 04:00:00,54.4,38.1,30.28,North,1,2.0,5.0,54,0.00,,,0.00,WeatherCatV1.10B1784,2013-02-28 12:00:00,
2013-02-28 04:05:00,54.4,38.1,30.28,North,354,0.0,2.0,54,0.00,,,0.00,WeatherCatV1.10B1784,2013-02-28 12:05:00,
2013-02-28 04:10:00,54.3,38.9,30.28,NNW,339,3.0,6.0,56,0.00,,,0.00,WeatherCatV1.10B1784,2013-02-28 12:10:00,
2013-02-28 04:15:00,54.3,38.9,30.28,NNW,341,2.0,5.0,56,0.00,,,0.00,WeatherCatV1.10B1784,2013-02-28 12:15:00,
2013-02-28 04:20:00,54.1,39.2,30.28,North,350,4.0,7.0,57,0.00,,,0.00,WeatherCatV1.10B1784,2013-02-28 12:20:00,
2013-02-28 04:25:00,54.0,39.1,30.28,NNW,346,3.0,4.0,57,0.00,,,0.00,WeatherCatV1.10B1784,2013-02-28 12:25:00,
2013-02-28 04:30:00,54.0,39.6,30.28,NNW,336,0.0,3.0,58,0.00,,,0.00,WeatherCatV1.10B1784,2013-02-28 12:30:00,
2013-02-28 04:35:00,53.8,39.8,30.28,NNW,341,1.0,3.0,59,0.00,,,0.00,WeatherCatV1.10B1784,2013-02-28 12:35:00,
2013-02-28 04:40:00,53.7,40.1,30.28,NW,324,1.0,4.0,60,0.00,,,0.00,WeatherCatV1.10B1784,2013-02-28 12:40:00,
2013-02-28 04:45:00,53.6,40.1,30.29,NNW,341,0.0,2.0,60,0.00,,,0.00,WeatherCatV1.10B1784,2013-02-28 12:45:00,
2013-02-28 04:50:00,53.5,40.4,30.29,NNW,337,2.0,4.0,61,0.00,,,0.00,WeatherCatV1.10B1784,2013-02-28 12:50:00,
2013-02-28 04:55:00,53.5,40.4,30.29,NNW,341,2.0,3.0,61,0.00,,,0.00,WeatherCatV1.10B1784,2013-02-28 12:55:00,
2013-02-28 05:00:00,53.4,40.3,30.29,NNW,341,0.0,4.0,61,0.00,,,0.00,WeatherCatV1.10B1784,2013-02-28 13:00:00,
2013-02-28 05:05:00,53.4,40.3,30.29,NNE,18,0.0,1.0,61,0.00,,,0.00,WeatherCatV1.10B1784,2013-02-28 13:05:00,
2013-02-28 05:10:00,53.3,40.6,30.29,NNW,337,5.0,6.0,62,0.00,,,0.00,WeatherCatV1.10B1784,2013-02-28 13:10:00,
2013-02-28 05:15:00,53.3,40.6,30.28,North,354,2.0,3.0,62,0.00,,,0.00,WeatherCatV1.10B1784,2013-02-28 13:15:00,
2013-02-28 05:20:00,53.4,40.7,30.28,North,0,2.0,5.0,62,0.00,,,0.00,WeatherCatV1.10B1784,2013-02-28 13:20:00,
2013-02-28 05:25:00,53.5,40.4,30.28,North,357,1.0,7.0,61,0.00,,,0.00,WeatherCatV1.10B1784,2013-02-28 13:25:00,
2013-02-28 05:30:00,53.7,40.6,30.28,North,350,1.0,2.0,61,0.00,,,0.00,WeatherCatV1.10B1784,2013-02-28 13:30:00,
2013-02-28 05:35:00,53.9,40.8,30.28,North,353,6.0,9.0,61,0.00,,,0.00,WeatherCatV1.10B1784,2013-02-28 13:35:00,
2013-02-28 05:40:00,54.1,41.0,30.28,NNW,344,4.0,9.0,61,0.00,,,0.00,WeatherCatV1.10B1784,2013-02-28 13:40:00,
2013-02-28 05:45:00,54.2,41.0,30.29,NNW,334,3.0,4.0,61,0.00,,,0.00,WeatherCatV1.10B1784,2013-02-28 13:45:00,
2013-02-28 05:50:00,54.1,41.4,30.29,NNW,345,2.0,6.0,62,0.00,,,0.00,WeatherCatV1.10B1784,2013-02-28 13:50:00,
2013-02-28 05:55:00,54.1,41.4,30.29,North,0,3.0,4.0,62,0.00,,,0.00,WeatherCatV1.10B1784,2013-02-28 13:55:00,
2013-02-28 06:00:00,54.0,41.3,30.29,North,0,1.0,4.0,62,0.00,,,0.00,WeatherCatV1.10B1784,2013-02-28 14:00:00,
2013-02-28 06:05:00,54.0,41.3,30.29,North,359,3.0,7.0,62,0.00,,,0.00,WeatherCatV1.10B1784,2013-02-28 14:05:00,
2013-02-28 06:10:00,53.9,41.2,30.29,NNW,345,2.0,6.0,62,0.00,,,0.00,WeatherCatV1.10B1784,2013-02-28 14:10:00,
2013-02-28 06:15:00,53.8,41.5,30.30,NW,320,5.0,5.0,63,0.00,,,0.00,WeatherCatV1.10B1784,2013-02-28 14:15:00,
2013-02-28 06:20:00,53.6,41.3,30.30,NNW,337,2.0,6.0,63,0.00,,,0.00,WeatherCatV1.10B1784,2013-02-28 14:20:00,
2013-02-28 06:25:00,53.5,41.2,30.30,North,355,2.0,5.0,63,0.00,,,0.00,WeatherCatV1.10B1784,2013-02-28 14:25:00,
2013-02-28 06:30:00,53.6,41.3,30.30,NNW,334,2.0,4.0,63,0.00,,,0.00,WeatherCatV1.10B1784,2013-02-28 14:30:00,
2013-02-28 06:35:00,53.5,41.2,30.30,NNW,342,3.0,10.0,63,0.00,,,0.00,WeatherCatV1.10B1784,2013-02-28 14:35:00,
2013-02-28 06:40:00,53.5,41.6,30.30,North,355,1.0,3.0,64,0.00,,,0.00,WeatherCatV1.10B1784,2013-02-28 14:40:00,
2013-02-28 06:45:00,53.4,41.5,30.31,North,356,3.0,5.0,64,0.00,,,0.00,WeatherCatV1.10B1784,2013-02-28 14:45:00,
2013-02-28 06:50:00,53.4,41.5,30.31,North,8,1.0,4.0,64,0.00,,,0.00,WeatherCatV1.10B1784,2013-02-28 14:50:00,
2013-02-28 06:55:00,53.3,41.4,30.31,NNW,348,3.0,8.0,64,0.00,,,0.00,WeatherCatV1.10B1784,2013-02-28 14:55:00,
2013-02-28 07:00:00,53.4,41.5,30.31,NNW,339,1.0,6.0,64,0.00,,,0.00,WeatherCatV1.10B1784,2013-02-28 15:00:00,
2013-02-28 07:05:00,53.4,41.9,30.31,NNW,346,2.0,4.0,65,0.00,,,0.00,WeatherCatV1.10B1784,2013-02-28 15:05:00,
2013-02-28 07:10:00,53.4,41.9,30.31,NNW,336,0.0,7.0,65,0.00,,,0.00,WeatherCatV1.10B1784,2013-02-28 15:10:00,
2013-02-28 07:15:00,53.4,41.9,30.31,NW,325,0.0,2.0,65,0.00,,,0.00,WeatherCatV1.10B1784,2013-02-28 15:15:00,
2013-02-28 07:20:00,53.4,41.9,30.31,NNW,333,1.0,2.0,65,0.00,,,0.00,WeatherCatV1.10B1784,2013-02-28 15:20:00,
2013-02-28 07:25:00,53.5,42.0,30.31,NW,323,1.0,4.0,65,0.00,,,0.00,WeatherCatV1.10B1784,2013-02-28 15:25:00,
2013-02-28 07:30:00,53.5,42.4,30.32,NNW,331,0.0,0.0,66,0.00,,,0.00,WeatherCatV1.10B1784,2013-02-28 15:30:00,
2013-02-28 07:35:00,53.4,42.3,30.32,NNW,333,1.0,3.0,66,0.00,,,0.00,WeatherCatV1.10B1784,2013-02-28 15:35:00,
2013-02-28 07:40:00,53.4,42.3,30.32,NW,321,2.0,4.0,66,0.00,,,0.00,WeatherCatV1.10B1784,2013-02-28 15:40:00,
2013-02-28 07:45:00,53.2,42.1,30.33,NNW,331,3.0,4.0,66,0.00,,,0.00,WeatherCatV1.10B1784,2013-02-28 15:45:00,
2013-02-28 07:50:00,53.0,41.9,30.33,NNW,337,1.0,7.0,66,0.00,,,0.00,WeatherCatV1.10B1784,2013-02-28 15:50:00,
2013-02-28 07:55:00,52.8,42.1,30.33,NNW,340,1.0,6.0,67,0.00,,,0.00,WeatherCatV1.10B1784,2013-02-28 15:55:00,
2013-02-28 08:00:00,52.8,42.1,30.33,North,349,2.0,3.0,67,0.00,,,0.00,WeatherCatV1.10B1784,2013-02-28 16:00:00,
2013-02-28 08:05:00,52.9,42.2,30.33,NNW,343,1.0,5.0,67,0.00,,,0.00,WeatherCatV1.10B1784,2013-02-28 16:05:00,
2013-02-28 08:10:00,53.0,42.3,30.33,NNW,338,2.0,4.0,67,0.00,,,0.00,WeatherCatV1.10B1784,2013-02-28 16:10:00,
2013-02-28 08:15:00,53.2,42.5,30.34,North,352,4.0,4.0,67,0.00,,,0.00,WeatherCatV1.10B1784,2013-02-28 16:15:00,
2013-02-28 08:20:00,53.7,43.0,30.34,NNW,343,2.0,4.0,67,0.00,,,0.00,WeatherCatV1.10B1784,2013-02-28 16:20:00,
2013-02-28 08:25:00,54.2,43.1,30.34,NNW,346,2.0,3.0,66,0.00,,,0.00,WeatherCatV1.10B1784,2013-02-28 16:25:00,
2013-02-28 08:30:00,54.9,43.4,30.34,NW,321,4.0,4.0,65,0.00,,,0.00,WeatherCatV1.10B1784,2013-02-28 16:30:00,
2013-02-28 08:35:00,55.2,43.2,30.34,NNW,341,4.0,4.0,64,0.00,,,0.00,WeatherCatV1.10B1784,2013-02-28 16:35:00,
2013-02-28 08:40:00,55.5,43.5,30.34,NNW,340,3.0,5.0,64,0.00,,,0.00,WeatherCatV1.10B1784,2013-02-28 16:40:00,
2013-02-28 08:45:00,55.3,43.7,30.35,NNW,343,5.0,7.0,65,0.00,,,0.00,WeatherCatV1.10B1784,2013-02-28 16:45:00,
2013-02-28 08:50:00,54.9,44.1,30.35,NNW,337,3.0,6.0,67,0.00,,,0.00,WeatherCatV1.10B1784,2013-02-28 16:50:00,
2013-02-28 08:55:00,54.6,44.3,30.35,NNW,335,3.0,6.0,68,0.00,,,0.00,WeatherCatV1.10B1784,2013-02-28 16:55:00,
2013-02-28 09:00:00,54.4,44.1,30.36,NW,323,2.0,5.0,68,0.00,,,0.00,WeatherCatV1.10B1784,2013-02-28 17:00:00,
2013-02-28 09:05:00,54.3,44.0,30.36,North,350,1.0,4.0,68,0.00,,,0.00,WeatherCatV1.10B1784,2013-02-28 17:05:00,
2013-02-28 09:10:00,54.4,43.7,30.36,NNW,342,5.0,6.0,67,0.00,,,0.00,WeatherCatV1.10B1784,2013-02-28 17:10:00,
2013-02-28 09:15:00,54.6,44.3,30.35,NNW,339,1.0,5.0,68,0.00,,,0.00,WeatherCatV1.10B1784,2013-02-28 17:15:00,
2013-02-28 09:20:00,55.0,44.2,30.35,North,350,2.0,4.0,67,0.00,,,0.00,WeatherCatV1.10B1784,2013-02-28 17:20:00,
2013-02-28 09:25:00,55.3,44.1,30.35,NNW,341,2.0,3.0,66,0.00,,,0.00,WeatherCatV1.10B1784,2013-02-28 17:25:00,
2013-02-28 09:30:00,55.6,44.4,30.35,NNW,337,2.0,4.0,66,0.00,,,0.00,WeatherCatV1.10B1784,2013-02-28 17:30:00,
2013-02-28 09:35:00,56.0,44.8,30.35,NNW,331,2.0,3.0,66,0.00,,,0.00,WeatherCatV1.10B1784,2013-02-28 17:35:00,
2013-02-28 09:40:00,56.7,44.7,30.35,NNW,348,2.0,2.0,64,0.00,,,0.00,WeatherCatV1.10B1784,2013-02-28 17:40:00,
2013-02-28 09:45:00,57.3,45.2,30.36,NNE,32,0.0,0.0,64,0.00,,,0.00,WeatherCatV1.10B1784,2013-02-28 17:45:00,
2013-02-28 09:50:00,57.8,45.3,30.36,North,358,0.0,0.0,63,0.00,,,0.00,WeatherCatV1.10B1784,2013-02-28 17:50:00,
2013-02-28 09:55:00,58.5,45.5,30.36,NNW,329,2.0,2.0,62,0.00,,,0.00,WeatherCatV1.10B1784,2013-02-28 17:55:00,
2013-02-28 10:00:00,59.1,45.7,30.36,SSE,147,1.0,3.0,61,0.00,,,0.00,WeatherCatV1.10B1784,2013-02-28 18:00:00,
2013-02-28 10:05:00,59.4,45.9,30.36,East,100,0.0,1.0,61,0.00,,,0.00,WeatherCatV1.10B1784,2013-02-28 18:05:00,
2013-02-28 10:10:00,60.0,46.5,30.36,SE,137,0.0,1.0,61,0.00,,,0.00,WeatherCatV1.10B1784,2013-02-28 18:10:00,
2013-02-28 10:15:00,60.5,46.1,30.36,NNW,333,1.0,3.0,59,0.00,,,0.00,WeatherCatV1.10B1784,2013-02-28 18:15:00,
2013-02-28 10:20:00,61.2,47.2,30.36,South,171,0.0,0.0,60,0.00,,,0.00,WeatherCatV1.10B1784,2013-02-28 18:20:00,
2013-02-28 10:25:00,61.2,47.2,30.36,NNW,342,0.0,1.0,60,0.00,,,0.00,WeatherCatV1.10B1784,2013-02-28 18:25:00,
2013-02-28 10:30:00,61.4,47.4,30.36,NNW,340,2.0,2.0,60,0.00,,,0.00,WeatherCatV1.10B1784,2013-02-28 18:30:00,
2013-02-28 10:35:00,61.7,46.8,30.36,SSE,158,0.0,2.0,58,0.00,,,0.00,WeatherCatV1.10B1784,2013-02-28 18:35:00,
2013-02-28 10:40:00,62.5,47.1,30.36,SE,142,1.0,2.0,57,0.00,,,0.00,WeatherCatV1.10B1784,2013-02-28 18:40:00,
2013-02-28 10:45:00,63.2,48.2,30.35,SE,138,0.0,0.0,58,0.00,,,0.00,WeatherCatV1.10B1784,2013-02-28 18:45:00,
2013-02-28 10:50:00,63.6,47.6,30.35,NNW,345,0.0,0.0,56,0.00,,,0.00,WeatherCatV1.10B1784,2013-02-28 18:50:00,
2013-02-28 10:55:00,64.1,47.6,30.35,SSE,162,1.0,2.0,55,0.00,,,0.00,WeatherCatV1.10B1784,2013-02-28 18:55:00,
2013-02-28 11:00:00,63.6,47.6,30.36,NNW,327,0.0,1.0,56,0.00,,,0.00,WeatherCatV1.10B1784,2013-02-28 19:00:00,
2013-02-28 11:05:00,63.7,48.2,30.36,South,180,2.0,2.0,57,0.00,,,0.00,WeatherCatV1.10B1784,2013-02-28 19:05:00,
2013-02-28 11:10:00,63.9,46.9,30.36,NNW,335,0.0,3.0,54,0.00,,,0.00,WeatherCatV1.10B1784,2013-02-28 19:10:00,
2013-02-28 11:15:00,63.6,47.6,30.36,SSE,168,0.0,1.0,56,0.00,,,0.00,WeatherCatV1.10B1784,2013-02-28 19:15:00,
2013-02-28 11:20:00,63.6,47.6,30.36,NNW,333,0.0,2.0,56,0.00,,,0.00,WeatherCatV1.10B1784,2013-02-28 19:20:00,
2013-02-28 11:25:00,63.4,47.4,30.36,SSE,156,0.0,2.0,56,0.00,,,0.00,WeatherCatV1.10B1784,2013-02-28 19:25:00,
2013-02-28 11:30:00,63.3,47.3,30.35,NNW,334,0.0,0.0,56,0.00,,,0.00,WeatherCatV1.10B1784,2013-02-28 19:30:00,
2013-02-28 11:35:00,63.7,47.7,30.35,SSE,150,1.0,1.0,56,0.00,,,0.00,WeatherCatV1.10B1784,2013-02-28 19:35:00,
2013-02-28 11:40:00,63.7,47.7,30.35,NNW,345,0.0,1.0,56,0.00,,,0.00,WeatherCatV1.10B1784,2013-02-28 19:40:00,
2013-02-28 11:45:00,64.0,48.0,30.35,North,356,1.0,1.0,56,0.00,,,0.00,WeatherCatV1.10B1784,2013-02-28 19:45:00,
2013-02-28 11:50:00,64.0,48.0,30.35,NNW,344,1.0,2.0,56,0.00,,,0.00,WeatherCatV1.10B1784,2013-02-28 19:50:00,
2013-02-28 11:55:00,63.9,47.4,30.35,NE,44,0.0,1.0,55,0.00,,,0.00,WeatherCatV1.10B1784,2013-02-28 19:55:00,
2013-02-28 12:00:00,63.8,47.8,30.35,NNW,330,2.0,3.0,56,0.00,,,0.00,WeatherCatV1.10B1784,2013-02-28 20:00:00,
2013-02-28 12:05:00,63.4,47.4,30.35,NW,323,2.0,2.0,56,0.00,,,0.00,WeatherCatV1.10B1784,2013-02-28 20:05:00,
2013-02-28 12:10:00,63.1,47.1,30.35,NNW,340,1.0,2.0,56,0.00,,,0.00,WeatherCatV1.10B1784,2013-02-28 20:10:00,
2013-02-28 12:15:00,63.0,47.5,30.34,NNW,339,0.0,1.0,57,0.00,,,0.00,WeatherCatV1.10B1784,2013-02-28 20:15:00,
2013-02-28 12:20:00,63.5,47.5,30.34,SE,131,0.0,1.0,56,0.00,,,0.00,WeatherCatV1.10B1784,2013-02-28 20:20:00,
2013-02-28 12:25:00,63.6,47.1,30.34,North,0,0.0,2.0,55,0.00,,,0.00,WeatherCatV1.10B1784,2013-02-28 20:25:00,
2013-02-28 12:30:00,63.2,47.2,30.34,North,357,2.0,2.0,56,0.00,,,0.00,WeatherCatV1.10B1784,2013-02-28 20:30:00,
2013-02-28 12:35:00,62.8,47.3,30.34,NNW,331,6.0,6.0,57,0.00,,,0.00,WeatherCatV1.10B1784,2013-02-28 20:35:00,
2013-02-28 12:40:00,62.6,46.7,30.34,North,350,3.0,8.0,56,0.00,,,0.00,WeatherCatV1.10B1784,2013-02-28 20:40:00,
2013-02-28 12:45:00,62.4,47.0,30.34,North,0,3.0,4.0,57,0.00,,,0.00,WeatherCatV1.10B1784,2013-02-28 20:45:00,
2013-02-28 12:50:00,62.2,46.8,30.34,NNW,334,4.0,5.0,57,0.00,,,0.00,WeatherCatV1.10B1784,2013-02-28 20:50:00,
2013-02-28 12:55:00,62.1,47.1,30.34,NNW,341,3.0,6.0,58,0.00,,,0.00,WeatherCatV1.10B1784,2013-02-28 20:55:00,
2013-02-28 13:00:00,61.8,46.9,30.33,NNW,341,2.0,5.0,58,0.00,,,0.00,WeatherCatV1.10B1784,2013-02-28 21:00:00,
2013-02-28 13:05:00,61.9,47.0,30.33,East,96,0.0,5.0,58,0.00,,,0.00,WeatherCatV1.10B1784,2013-02-28 21:05:00,
2013-02-28 13:10:00,62.2,47.2,30.33,ENE,59,0.0,1.0,58,0.00,,,0.00,WeatherCatV1.10B1784,2013-02-28 21:10:00,
2013-02-28 13:15:00,62.6,47.1,30.32,NNW,343,2.0,5.0,57,0.00,,,0.00,WeatherCatV1.10B1784,2013-02-28 21:15:00,
2013-02-28 13:20:00,63.0,47.5,30.32,NNW,331,2.0,2.0,57,0.00,,,0.00,WeatherCatV1.10B1784,2013-02-28 21:20:00,
2013-02-28 13:25:00,63.2,47.7,30.32,NNW,340,2.0,2.0,57,0.00,,,0.00,WeatherCatV1.10B1784,2013-02-28 21:25:00,
2013-02-28 13:30:00,62.9,47.4,30.32,East,81,0.0,5.0,57,0.00,,,0.00,WeatherCatV1.10B1784,2013-02-28 21:30:00,
2013-02-28 13:35:00,62.7,47.2,30.32,North,8,2.0,3.0,57,0.00,,,0.00,WeatherCatV1.10B1784,2013-02-28 21:35:00,
2013-02-28 13:40:00,62.7,47.7,30.32,ENE,69,0.0,4.0,58,0.00,,,0.00,WeatherCatV1.10B1784,2013-02-28 21:40:00,
2013-02-28 13:45:00,62.5,47.5,30.32,NNW,331,1.0,4.0,58,0.00,,,0.00,WeatherCatV1.10B1784,2013-02-28 21:45:00,
2013-02-28 13:50:00,62.3,47.3,30.32,NNW,348,1.0,3.0,58,0.00,,,0.00,WeatherCatV1.10B1784,2013-02-28 21:50:00,
2013-02-28 13:55:00,62.4,47.4,30.32,NW,310,0.0,4.0,58,0.00,,,0.00,WeatherCatV1.10B1784,2013-02-28 21:55:00,
2013-02-28 14:00:00,62.7,47.2,30.32,NNW,345,1.0,3.0,57,0.00,,,0.00,WeatherCatV1.10B1784,2013-02-28 22:00:00,
2013-02-28 14:05:00,63.0,47.1,30.32,WNW,300,2.0,2.0,56,0.00,,,0.00,WeatherCatV1.10B1784,2013-02-28 22:05:00,
2013-02-28 14:10:00,63.3,47.3,30.32,NNW,329,3.0,5.0,56,0.00,,,0.00,WeatherCatV1.10B1784,2013-02-28 22:10:00,
2013-02-28 14:15:00,63.3,47.3,30.32,NW,323,0.0,2.0,56,0.00,,,0.00,WeatherCatV1.10B1784,2013-02-28 22:15:00,
2013-02-28 14:20:00,63.4,46.9,30.32,NNW,341,3.0,3.0,55,0.00,,,0.00,WeatherCatV1.10B1784,2013-02-28 22:20:00,
2013-02-28 14:25:00,63.3,46.9,30.32,North,350,0.0,1.0,55,0.00,,,0.00,WeatherCatV1.10B1784,2013-02-28 22:25:00,
2013-02-28 14:30:00,63.5,47.5,30.32,SSE,156,0.0,0.0,56,0.00,,,0.00,WeatherCatV1.10B1784,2013-02-28 22:30:00,
2013-02-28 14:35:00,63.5,47.5,30.32,NNW,329,3.0,5.0,56,0.00,,,0.00,WeatherCatV1.10B1784,2013-02-28 22:35:00,
2013-02-28 14:40:00,63.3,47.3,30.32,NNE,14,0.0,4.0,56,0.00,,,0.00,WeatherCatV1.10B1784,2013-02-28 22:40:00,
2013-02-28 14:45:00,63.1,47.1,30.32,NNE,15,1.0,6.0,56,0.00,,,0.00,WeatherCatV1.10B1784,2013-02-28 22:45:00,
2013-02-28 14:50:00,62.7,47.2,30.32,NNW,341,4.0,5.0,57,0.00,,,0.00,WeatherCatV1.10B1784,2013-02-28 22:50:00,
2013-02-28 14:55:00,62.6,47.6,30.32,NNW,336,3.0,4.0,58,0.00,,,0.00,WeatherCatV1.10B1784,2013-02-28 22:55:00,
2013-02-28 15:00:00,62.4,47.9,30.32,NNW,339,0.0,6.0,59,0.00,,,0.00,WeatherCatV1.10B1784,2013-02-28 23:00:00,
2013-02-28 15:05:00,62.3,47.8,30.32,NNW,330,4.0,4.0,59,0.00,,,0.00,WeatherCatV1.10B1784,2013-02-28 23:05:00,
2013-02-28 15:10:00,62.0,47.5,30.32,NNW,339,0.0,8.0,59,0.00,,,0.00,WeatherCatV1.10B1784,2013-02-28 23:10:00,
2013-02-28 15:15:00,61.8,47.3,30.32,NNW,344,3.0,3.0,59,0.00,,,0.00,WeatherCatV1.10B1784,2013-02-28 23:15:00,
2013-02-28 15:20:00,61.7,47.2,30.32,NNW,336,6.0,6.0,59,0.00,,,0.00,WeatherCatV1.10B1784,2013-02-28 23:20:00,
2013-02-28 15:25:00,61.4,47.4,30.32,NNW,337,3.0,4.0,60,0.00,,,0.00,WeatherCatV1.10B1784,2013-02-28 23:25:00,
2013-02-28 15:30:00,61.2,47.2,30.32,NNW,345,0.0,8.0,60,0.00,,,0.00,WeatherCatV1.10B1784,2013-02-28 23:30:00,
2013-02-28 15:35:00,60.9,47.4,30.32,NNW,348,4.0,4.0,61,0.00,,,0.00,WeatherCatV1.10B1784,2013-02-28 23:35:00,
2013-02-28 15:40:00,60.7,47.2,30.32,NNW,336,4.0,9.0,61,0.00,,,0.00,WeatherCatV1.10B1784,2013-02-28 23:40:00,
2013-02-28 15:45:00,60.5,47.4,30.32,NNW,333,3.0,7.0,62,0.00,,,0.00,WeatherCatV1.10B1784,2013-02-28 23:45:00,
2013-02-28 15:50:00,60.4,47.3,30.32,NNW,337,2.0,6.0,62,0.00,,,0.00,WeatherCatV1.10B1784,2013-02-28 23:50:00,
2013-02-28 15:55:00,60.4,47.3,30.32,NNW,333,3.0,4.0,62,0.00,,,0.00,WeatherCatV1.10B1784,2013-02-28 23:55:00,
2013-02-28 16:00:00,60.3,47.6,30.32,NNW,335,1.0,2.0,63,0.00,,,0.00,WeatherCatV1.10B1784,2013-03-01 00:00:00,
2013-02-28 16:05:00,60.3,47.6,30.32,NNW,345,0.0,3.0,63,0.00,,,0.00,WeatherCatV1.10B1784,2013-03-01 00:05:00,
2013-02-28 16:10:00,60.4,48.2,30.32,NNE,13,0.0,1.0,64,0.00,,,0.00,WeatherCatV1.10B1784,2013-03-01 00:10:00,
2013-02-28 16:15:00,60.4,47.7,30.32,NE,42,1.0,5.0,63,0.00,,,0.00,WeatherCatV1.10B1784,2013-03-01 00:15:00,
2013-02-28 16:20:00,60.3,47.6,30.32,NE,36,0.0,1.0,63,0.00,,,0.00,WeatherCatV1.10B1784,2013-03-01 00:20:00,
2013-02-28 16:25:00,60.3,48.1,30.32,NNE,16,1.0,3.0,64,0.00,,,0.00,WeatherCatV1.10B1784,2013-03-01 00:25:00,
2013-02-28 16:30:00,60.1,47.9,30.32,NNW,345,0.0,0.0,64,0.00,,,0.00,WeatherCatV1.10B1784,2013-03-01 00:30:00,
2013-02-28 16:35:00,60.0,47.8,30.32,NNW,341,0.0,1.0,64,0.00,,,0.00,WeatherCatV1.10B1784,2013-03-01 00:35:00,
2013-02-28 16:40:00,60.0,47.8,30.32,North,352,1.0,4.0,64,0.00,,,0.00,WeatherCatV1.10B1784,2013-03-01 00:40:00,
2013-02-28 16:45:00,59.8,48.0,30.32,NNW,345,0.0,2.0,65,0.00,,,0.00,WeatherCatV1.10B1784,2013-03-01 00:45:00,
2013-02-28 16:50:00,59.6,47.8,30.32,WNW,289,2.0,3.0,65,0.00,,,0.00,WeatherCatV1.10B1784,2013-03-01 00:50:00,
2013-02-28 16:55:00,59.3,47.5,30.32,North,351,2.0,6.0,65,0.00,,,0.00,WeatherCatV1.10B1784,2013-03-01 00:55:00,
2013-02-28 17:00:00,58.9,47.6,30.32,NNW,339,1.0,4.0,66,0.00,,,0.00,WeatherCatV1.10B1784,2013-03-01 01:00:00,
2013-02-28 17:05:00,58.6,47.3,30.32,NNW,337,3.0,5.0,66,0.00,,,0.00,WeatherCatV1.10B1784,2013-03-01 01:05:00,
2013-02-28 17:10:00,58.4,47.1,30.32,NNW,329,2.0,3.0,66,0.00,,,0.00,WeatherCatV1.10B1784,2013-03-01 01:10:00,
2013-02-28 17:15:00,58.0,46.7,30.32,NNW,339,2.0,4.0,66,0.00,,,0.00,WeatherCatV1.10B1784,2013-03-01 01:15:00,
2013-02-28 17:20:00,57.6,46.7,30.32,NNW,332,5.0,6.0,67,0.00,,,0.00,WeatherCatV1.10B1784,2013-03-01 01:20:00,
2013-02-28 17:25:00,57.2,46.7,30.32,NNW,333,4.0,7.0,68,0.00,,,0.00,WeatherCatV1.10B1784,2013-03-01 01:25:00,
2013-02-28 17:30:00,56.9,46.4,30.32,North,350,3.0,6.0,68,0.00,,,0.00,WeatherCatV1.10B1784,2013-03-01 01:30:00,
2013-02-28 17:35:00,56.7,46.6,30.32,NNW,341,3.0,5.0,69,0.00,,,0.00,WeatherCatV1.10B1784,2013-03-01 01:35:00,
2013-02-28 17:40:00,56.3,46.6,30.32,North,350,2.0,4.0,70,0.00,,,0.00,WeatherCatV1.10B1784,2013-03-01 01:40:00,
2013-02-28 17:45:00,56.0,46.7,30.33,North,352,3.0,5.0,71,0.00,,,0.00,WeatherCatV1.10B1784,2013-03-01 01:45:00,
2013-02-28 17:50:00,55.6,47.1,30.33,WNW,283,2.0,6.0,73,0.00,,,0.00,WeatherCatV1.10B1784,2013-03-01 01:50:00,
2013-02-28 17:55:00,55.2,47.1,30.33,NNW,341,3.0,4.0,74,0.00,,,0.00,WeatherCatV1.10B1784,2013-03-01 01:55:00,
2013-02-28 18:00:00,55.0,46.9,30.32,NNW,340,4.0,6.0,74,0.00,,,0.00,WeatherCatV1.10B1784,2013-03-01 02:00:00,
2013-02-28 18:05:00,54.8,46.7,30.32,NNW,339,3.0,5.0,74,0.00,,,0.00,WeatherCatV1.10B1784,2013-03-01 02:05:00,
2013-02-28 18:10:00,54.7,46.6,30.32,NNW,343,3.0,6.0,74,0.00,,,0.00,WeatherCatV1.10B1784,2013-03-01 02:10:00,
2013-02-28 18:15:00,54.7,46.6,30.32,NW,308,2.0,4.0,74,0.00,,,0.00,WeatherCatV1.10B1784,2013-03-01 02:15:00,
2013-02-28 18:20:00,54.6,46.1,30.32,NNW,343,2.0,2.0,73,0.00,,,0.00,WeatherCatV1.10B1784,2013-03-01 02:20:00,
2013-02-28 18:25:00,54.9,46.0,30.32,NNW,337,2.0,2.0,72,0.00,,,0.00,WeatherCatV1.10B1784,2013-03-01 02:25:00,
2013-02-28 18:30:00,55.1,45.9,30.32,NNW,337,1.0,2.0,71,0.00,,,0.00,WeatherCatV1.10B1784,2013-03-01 02:30:00,
2013-02-28 18:35:00,55.1,45.5,30.32,NNW,329,4.0,4.0,70,0.00,,,0.00,WeatherCatV1.10B1784,2013-03-01 02:35:00,
2013-02-28 18:40:00,55.1,45.9,30.32,NNW,348,0.0,4.0,71,0.00,,,0.00,WeatherCatV1.10B1784,2013-03-01 02:40:00,
2013-02-28 18:45:00,55.0,45.8,30.33,NW,324,2.0,5.0,71,0.00,,,0.00,WeatherCatV1.10B1784,2013-03-01 02:45:00,
2013-02-28 18:50:00,54.8,45.6,30.33,NNW,331,2.0,4.0,71,0.00,,,0.00,WeatherCatV1.10B1784,2013-03-01 02:50:00,
2013-02-28 18:55:00,54.8,45.6,30.33,NNW,345,1.0,4.0,71,0.00,,,0.00,WeatherCatV1.10B1784,2013-03-01 02:55:00,
2013-02-28 19:00:00,54.7,45.5,30.33,NNW,343,0.0,4.0,71,0.00,,,0.00,WeatherCatV1.10B1784,2013-03-01 03:00:00,
2013-02-28 19:05:00,54.7,45.1,30.33,NNW,336,3.0,4.0,70,0.00,,,0.00,WeatherCatV1.10B1784,2013-03-01 03:05:00,
2013-02-28 19:10:00,54.8,45.2,30.33,NNW,336,1.0,5.0,70,0.00,,,0.00,WeatherCatV1.10B1784,2013-03-01 03:10:00,
2013-02-28 19:11:00,54.8,45.2,30.33,NNW,336,2.0,2.0,70,0.00,,,0.00,WeatherCatV1.10B1784,2013-03-01 03:11:00,
2013-02-28 19:16:00,54.9,44.9,30.34,NNW,341,3.0,4.0,69,0.00,,,0.00,WeatherCatV1.10B1784,2013-03-01 03:16:00,
2013-02-28 19:21:00,55.1,45.1,30.34,NNW,334,2.0,3.0,69,0.00,,,0.00,WeatherCatV1.10B1784,2013-03-01 03:21:00,
2013-02-28 19:26:00,55.2,44.8,30.34,NNW,342,2.0,3.0,68,0.00,,,0.00,WeatherCatV1.10B1784,2013-03-01 03:26:00,
2013-02-28 19:31:00,55.2,44.8,30.34,NNW,340,2.0,4.0,68,0.00,,,0.00,WeatherCatV1.10B1784,2013-03-01 03:31:00,
2013-02-28 19:36:00,55.3,44.9,30.34,NNW,348,3.0,5.0,68,0.00,,,0.00,WeatherCatV1.10B1784,2013-03-01 03:36:00,
2013-02-28 19:41:00,55.4,45.0,30.34,NNW,342,5.0,5.0,68,0.00,,,0.00,WeatherCatV1.10B1784,2013-03-01 03:41:00,
2013-02-28 19:46:00,55.5,45.1,30.34,NNW,335,2.0,6.0,68,0.00,,,0.00,WeatherCatV1.10B1784,2013-03-01 03:46:00,
2013-02-28 19:51:00,55.6,45.2,30.34,NNW,331,5.0,8.0,68,0.00,,,0.00,WeatherCatV1.10B1784,2013-03-01 03:51:00,
2013-02-28 19:56:00,55.4,45.0,30.34,NW,325,4.0,6.0,68,0.00,,,0.00,WeatherCatV1.10B1784,2013-03-01 03:56:00,
2013-02-28 20:01:00,55.3,44.9,30.35,NNW,336,3.0,5.0,68,0.00,,,0.00,WeatherCatV1.10B1784,2013-03-01 04:01:00,
2013-02-28 20:06:00,55.1,45.1,30.35,NNW,338,2.0,3.0,69,0.00,,,0.00,WeatherCatV1.10B1784,2013-03-01 04:06:00,
2013-02-28 20:11:00,55.1,45.1,30.35,NNW,338,0.0,4.0,69,0.00,,,0.00,WeatherCatV1.10B1784,2013-03-01 04:11:00,
2013-02-28 20:16:00,55.0,45.0,30.35,NNW,338,3.0,4.0,69,0.00,,,0.00,WeatherCatV1.10B1784,2013-03-01 04:16:00,
2013-02-28 20:21:00,55.0,45.0,30.35,NNW,330,3.0,4.0,69,0.00,,,0.00,WeatherCatV1.10B1784,2013-03-01 04:21:00,
2013-02-28 20:26:00,54.9,44.9,30.35,NNW,331,4.0,4.0,69,0.00,,,0.00,WeatherCatV1.10B1784,2013-03-01 04:26:00,
2013-02-28 20:31:00,54.9,44.9,30.36,NNW,337,1.0,1.0,69,0.00,,,0.00,WeatherCatV1.10B1784,2013-03-01 04:31:00,
2013-02-28 20:36:00,54.7,44.7,30.36,NNW,337,0.0,1.0,69,0.00,,,0.00,WeatherCatV1.10B1784,2013-03-01 04:36:00,
2013-02-28 20:41:00,54.4,44.4,30.36,NNW,329,1.0,2.0,69,0.00,,,0.00,WeatherCatV1.10B1784,2013-03-01 04:41:00,
2013-02-28 20:46:00,54.2,44.6,30.36,NNW,331,0.0,0.0,70,0.00,,,0.00,WeatherCatV1.10B1784,2013-03-01 04:46:00,
2013-02-28 20:51:00,54.1,44.5,30.36,NNW,331,0.0,0.0,70,0.00,,,0.00,WeatherCatV1.10B1784,2013-03-01 04:51:00,
2013-02-28 20:56:00,54.0,44.4,30.36,South,181,0.0,0.0,70,0.00,,,0.00,WeatherCatV1.10B1784,2013-03-01 04:56:00,
2013-02-28 21:00:00,53.9,44.3,30.36,South,181,0.0,0.0,70,0.00,,,0.00,WeatherCatV1.10B1784,2013-03-01 05:00:00,
2013-02-28 21:05:00,53.8,44.6,30.36,South,181,0.0,0.0,71,0.00,,,0.00,WeatherCatV1.10B1784,2013-03-01 05:05:00,
2013-02-28 21:10:00,53.7,44.5,30.36,South,181,0.0,0.0,71,0.00,,,0.00,WeatherCatV1.10B1784,2013-03-01 05:10:00,
2013-02-28 21:15:00,53.7,44.5,30.37,NNW,341,0.0,1.0,71,0.00,,,0.00,WeatherCatV1.10B1784,2013-03-01 05:15:00,
2013-02-28 21:20:00,53.7,44.5,30.37,NNW,340,0.0,0.0,71,0.00,,,0.00,WeatherCatV1.10B1784,2013-03-01 05:20:00,
2013-02-28 21:25:00,53.7,44.5,30.37,NNW,340,0.0,0.0,71,0.00,,,0.00,WeatherCatV1.10B1784,2013-03-01 05:25:00,
2013-02-28 21:30:00,53.7,44.2,30.37,NNW,341,0.0,0.0,70,0.00,,,0.00,WeatherCatV1.10B1784,2013-03-01 05:30:00,
2013-02-28 21:35:00,53.8,44.2,30.37,NNW,342,0.0,0.0,70,0.00,,,0.00,WeatherCatV1.10B1784,2013-03-01 05:35:00,
2013-02-28 21:40:00,53.9,44.3,30.37,NNW,342,0.0,0.0,70,0.00,,,0.00,WeatherCatV1.10B1784,2013-03-01 05:40:00,
2013-02-28 21:45:00,53.9,44.3,30.37,NNW,341,0.0,0.0,70,0.00,,,0.00,WeatherCatV1.10B1784,2013-03-01 05:45:00,
2013-02-28 21:50:00,54.1,44.5,30.37,NNW,341,0.0,0.0,70,0.00,,,0.00,WeatherCatV1.10B1784,2013-03-01 05:50:00,
2013-02-28 21:55:00,54.2,44.6,30.37,NNW,341,0.0,0.0,70,0.00,,,0.00,WeatherCatV1.10B1784,2013-03-01 05:55:00,
2013-02-28 22:00:00,54.3,45.1,30.38,NNW,342,0.0,0.0,71,0.00,,,0.00,WeatherCatV1.10B1784,2013-03-01 06:00:00,
2013-02-28 22:05:00,54.4,44.8,30.38,NNW,342,0.0,0.0,70,0.00,,,0.00,WeatherCatV1.10B1784,2013-03-01 06:05:00,
2013-02-28 22:10:00,54.5,45.3,30.38,NNW,342,0.0,0.0,71,0.00,,,0.00,WeatherCatV1.10B1784,2013-03-01 06:10:00,
2013-02-28 22:15:00,54.4,44.8,30.37,NNW,341,0.0,0.0,70,0.00,,,0.00,WeatherCatV1.10B1784,2013-03-01 06:15:00,
2013-02-28 22:20:00,54.2,45.0,30.37,NNW,337,1.0,1.0,71,0.00,,,0.00,WeatherCatV1.10B1784,2013-03-01 06:20:00,
2013-02-28 22:25:00,54.0,45.2,30.37,NNW,337,1.0,2.0,72,0.00,,,0.00,WeatherCatV1.10B1784,2013-03-01 06:25:00,
2013-02-28 22:30:00,54.0,45.2,30.37,NNW,340,2.0,3.0,72,0.00,,,0.00,WeatherCatV1.10B1784,2013-03-01 06:30:00,
2013-02-28 22:35:00,54.1,45.3,30.37,NNW,337,3.0,5.0,72,0.00,,,0.00,WeatherCatV1.10B1784,2013-03-01 06:35:00,
2013-02-28 22:40:00,54.3,45.5,30.37,NNW,339,3.0,4.0,72,0.00,,,0.00,WeatherCatV1.10B1784,2013-03-01 06:40:00,
2013-02-28 22:45:00,54.3,45.5,30.37,NNW,335,4.0,4.0,72,0.00,,,0.00,WeatherCatV1.10B1784,2013-03-01 06:45:00,
2013-02-28 22:50:00,54.4,45.2,30.37,NNW,338,3.0,6.0,71,0.00,,,0.00,WeatherCatV1.10B1784,2013-03-01 06:50:00,
2013-02-28 22:55:00,54.3,45.1,30.37,NNW,335,3.0,5.0,71,0.00,,,0.00,WeatherCatV1.10B1784,2013-03-01 06:55:00,
2013-02-28 23:00:00,54.3,45.5,30.37,NNW,341,3.0,5.0,72,0.00,,,0.00,WeatherCatV1.10B1784,2013-03-01 07:00:00,
2013-02-28 23:05:00,54.0,45.2,30.37,NNW,336,4.0,5.0,72,0.00,,,0.00,WeatherCatV1.10B1784,2013-03-01 07:05:00,
2013-02-28 23:10:00,53.9,45.1,30.37,NNW,331,3.0,5.0,72,0.00,,,0.00,WeatherCatV1.10B1784,2013-03-01 07:10:00,
2013-02-28 23:15:00,53.8,45.3,30.36,NNW,348,4.0,4.0,73,0.00,,,0.00,WeatherCatV1.10B1784,2013-03-01 07:15:00,
2013-02-28 23:20:00,53.7,45.3,30.36,NNE,29,2.0,5.0,73,0.00,,,0.00,WeatherCatV1.10B1784,2013-03-01 07:20:00,
2013-02-28 23:25:00,53.9,45.4,30.36,NW,325,5.0,5.0,73,0.00,,,0.00,WeatherCatV1.10B1784,2013-03-01 07:25:00,
2013-02-28 23:30:00,54.1,45.6,30.36,NNW,337,5.0,5.0,73,0.00,,,0.00,WeatherCatV1.10B1784,2013-03-01 07:30:00,
2013-02-28 23:35:00,54.3,45.8,30.36,North,349,5.0,5.0,73,0.00,,,0.00,WeatherCatV1.10B1784,2013-03-01 07:35:00,
2013-02-28 23:40:00,54.4,45.6,30.36,North,350,5.0,6.0,72,0.00,,,0.00,WeatherCatV1.10B1784,2013-03-01 07:40:00,
2013-02-28 23:45:00,54.5,45.7,30.36,NNW,336,5.0,6.0,72,0.00,,,0.00,WeatherCatV1.10B1784,2013-03-01 07:45:00,
2013-02-28 23:50:00,54.6,45.8,30.36,NNW,339,6.0,6.0,72,0.00,,,0.00,WeatherCatV1.10B1784,2013-03-01 07:50:00,
2013-02-28 23:55:00,54.7,45.5,30.36,NNW,333,5.0,7.0,71,0.00,,,0.00,WeatherCatV1.10B1784,2013-03-01 07:55:00,